Location: Belfast
(54.5830°N, 5.9330°W)
Time: 02:36:12
(UTC+00:00)

ISS - Pass Details

Date: 31 January 2021
Orbit: 417 x 422 km, 51.6° (Epoch: 25 February)

Event Time Altitude Azimuth Distance (km) Brightness Sun altitude
Rises 18:34:03 0° 272° (W) 2,378 1.8 -13.5°
Reaches altitude 10° 18:36:13 10° 265° (W) 1,512 0.5 -13.8°
Maximum altitude 18:39:26 41° 194° (SSW) 630 -2.7 -14.2°
Enters shadow 18:41:36 18° 131° (SE) 1,124 -2.0 -14.5°
